RADIO ROSTO (RS15)

Last updated on Mon Sep 21 2026 00:03:14 GMT+0000 (Coordinated Universal Time)

1 23439U 94085A 26263.36802997 -.00000041 00000+0 49157-4 0 9995 2 23439 64.8154 149.2817 0159275 346.7962 12.8818 11.27583935306639
UTC large
Height (km)
Speed (km/s)
/
Latitude / Longitude
Inclination (degrees)
Orbital Period (minutes)
Azimuth
Elevation
Range (km)
Doppler Factor

Next 0 passes for location: London (51.5072 / 0.1276)

No passes found over London.
RADIO ROSTO (RS15)